Location: Newark
(13.6797°N, 8.5297°E)
Time: 13:36:58
(UTC+00:00)

A-11 Canister half - Pass Details

Date: 27 January 2020
Orbit: 1517 x 1683 km, 47.2° (Epoch: 22 February)

Event Time Altitude Azimuth Distance (km) Brightness Sun altitude
Rises 19:19:59 0° 209° (SSW) 4,875 12.2 -28.0°
Reaches altitude 10° 19:23:15 10° 205° (SSW) 3,869 11.5 -28.8°
Maximum altitude 19:32:49 57° 129° (SE) 1,838 9.1 -31.0°
Enters shadow 19:33:26 56° 115° (ESE) 1,849 9.0 -31.2°
Drops below altitude 10° 19:42:02 10° 54° (NE) 3,742 - -33.2°
Sets 19:45:07 0° 50° (NE) 4,707 - -33.9°
